#timestamp,LO_Frequency,Hit,StdDev 
1600228815.1,286047000.8,N
1600228816.0,286047000.8,N
1600228835.8,286047002.5,N
1600228855.6,286047000.3,N
1600228875.5,286046998.2,N
1600228895.3,286047000.8,N
1600228915.2,286046998.8,N
1600228935.9,286046999.4,N
1600228955.7,286046998.4,N
1600228975.6,286047000.6,N
1600228995.4,286047001.1,N
1600229015.2,286046998.2,N
1600229035.1,286046999.1,N
1600229036.0,286046999.1,N
1600229055.8,286046999.1,N
1600229075.7,286046999.9,N
1600229095.5,286047000.2,N
1600229115.3,286047004.3,N
1600229135.2,286047003.5,N
1600229155.0,286047003.2,N
1600229155.9,286047003.2,N
1600229175.8,286047001.7,N
1600229195.6,286047001.6,N
1600229215.4,286047001.7,N
1600229235.3,286047000.0,N
1600229255.1,286046998.3,N
1600229275.8,286046999.2,N
1600229295.7,286046997.4,N
1600229315.5,286046997.3,N
1600229335.4,286046998.0,N
1600229355.2,286046997.4,N
1600229375.0,286046997.1,N
1600229375.9,286046997.1,N
1600229395.8,286046997.6,N
1600229415.6,286046997.3,N
1600229435.5,286046996.7,N
1600229455.3,286046999.5,N
1600229475.1,286046999.4,N
1600229495.9,286046998.9,N
1600229515.7,286046996.6,N
1600229535.5,286046996.9,N
1600229555.4,286046998.4,N
1600229575.2,286046999.2,N
1600229595.1,286046997.8,N
1600229596.0,286046997.8,N
1600229615.8,286046997.2,N
1600229635.6,286046997.5,N
1600229655.5,286046999.3,N
1600229675.3,286046999.4,N
1600229695.1,286046996.8,N
1600229715.9,286046996.9,N
1600229735.7,286046997.5,N
1600229755.6,286046996.7,N
1600229775.4,286046996.9,N
1600229795.2,286046997.1,N
1600229815.1,286046996.5,Y
1600229816.0,286046996.5,P
1600229835.8,286047001.2,N
1600229855.7,286047000.9,N
1600229875.5,286047000.3,N
1600229895.3,286047000.9,N
1600229915.2,286046998.8,N
1600229935.0,286047001.0,N
1600229935.9,286047001.0,N
1600229955.7,286047000.8,N
1600229975.6,286047001.0,N
1600229995.4,286047000.1,N
1600230015.3,286047002.7,N
1600230035.1,286047001.2,N
1600230055.8,286047002.0,N
1600230075.7,286047003.4,N
1600230095.5,286047004.0,N
1600230115.4,286047002.6,N
1600230135.2,286047000.6,N
1600230155.0,286047000.0,N
1600230155.9,286047000.0,N
1600230175.8,286046998.6,N
1600230195.6,286047000.6,N
1600230215.4,286047001.2,N
1600230235.3,286046998.6,N
1600230255.1,286046998.1,N
1600230275.9,286046998.2,N
1600230295.7,286047001.6,N
1600230315.5,286047002.7,N
1600230335.4,286046999.8,N
1600230355.2,286047002.5,N
1600230375.0,286047002.3,N
1600230375.9,286047002.3,N
1600230395.8,286047002.5,N
1600230415.6,286047000.9,N
1600230435.5,286047000.3,N
1600230455.3,286047000.7,N
1600230475.1,286047001.3,N
1600230495.9,286047003.2,N
1600230515.7,286047005.8,Y
1600230535.6,286047004.9,P
1600230555.4,286047003.9,N
1600230575.2,286047005.5,P
1600230595.1,286047003.5,N
1600230596.0,286047003.5,N
1600230615.8,286047003.6,N
1600230635.6,286047004.2,Y
1600230655.5,286046998.7,P
1600230675.3,286047000.9,N
1600230695.2,286046998.2,N
1600230715.9,286046997.0,N
1600230735.7,286046995.0,N
1600230755.6,286046996.3,N
1600230775.4,286046993.4,N
1600230795.2,286046996.0,N
1600230815.1,286046997.9,N
1600230816.0,286046997.9,N
1600230835.8,286046996.3,N
1600230855.7,286046996.0,N
1600230875.5,286046996.4,N
1600230895.3,286046996.4,N
1600230915.2,286046996.3,N
1600230935.0,286046996.1,N
1600230935.9,286046996.1,N
1600230955.8,286046996.3,N
1600230975.6,286046995.9,N
1600230995.4,286046995.7,N
1600231015.3,286046995.8,N
1600231035.1,286046996.1,N
1600231055.8,286046994.0,N
1600231075.7,286046996.1,N
1600231095.5,286046993.4,Y
1600231115.4,286046999.1,P
1600231135.2,286046996.6,N
1600231155.0,286046999.2,N
1600231155.9,286046999.2,N
1600231175.8,286046996.5,N
1600231195.6,286046999.4,N
1600231215.5,286047002.7,N
1600231235.3,286047002.4,N
1600231255.1,286047001.9,N
1600231275.9,286047001.6,N
1600231295.7,286047002.1,N
1600231315.5,286047002.7,N
1600231335.4,286047002.8,N
1600231355.2,286047002.6,N
1600231375.1,286047002.3,N
1600231376.0,286047002.3,N
1600231395.8,286047011.9,Y
1600231415.6,286047002.8,P
1600231435.5,286046998.8,N
1600231455.3,286046999.0,N
1600231475.1,286046996.7,N
1600231495.9,286046996.6,N
1600231515.7,286046999.7,N
1600231535.6,286046999.7,N
1600231555.4,286047000.0,N
1600231575.2,286046999.1,N
1600231595.1,286046996.9,N
1600231596.0,286046996.9,N
1600231615.8,286046996.9,N
1600231635.7,286046997.0,N
1600231655.5,286046997.0,N
1600231675.3,286046999.4,N
1600231695.2,286047002.3,N
1600231715.9,286047003.8,N
1600231735.7,286047002.3,N
1600231755.6,286046999.7,N
1600231775.4,286047004.2,N
1600231795.3,286047001.3,N
1600231815.1,286047004.4,N
1600231816.0,286047004.4,N
1600231835.8,286047004.1,N
1600231855.7,286047002.1,N
1600231875.5,286047000.2,N
1600231895.3,286047002.1,N
1600231915.2,286047001.4,N
1600231935.0,286047002.1,N
1600231935.9,286047002.1,N
1600231955.8,286047002.4,N
1600231975.6,286047000.1,N
1600231995.4,286047000.6,N
1600232015.3,286047002.0,N
1600232035.1,286047001.5,N
1600232055.8,286047001.9,N
1600232075.7,286047001.5,N
1600232095.5,286047002.2,N
1600232115.4,286047000.2,N
1600232135.2,286047000.5,N
1600232155.0,286046996.9,N
1600232155.9,286046996.9,N
1600232175.8,286046997.4,N
1600232195.6,286046994.9,N
1600232215.5,286046997.6,N
1600232235.3,286046999.1,N
1600232255.1,286046996.6,N
1600232275.9,286047000.4,N
1600232295.7,286047000.8,N
1600232315.5,286046999.0,N
1600232335.4,286046996.9,N
1600232355.2,286046999.6,N
1600232375.1,286046998.1,N
1600232376.0,286046998.1,N
1600232395.8,286047002.8,N
